Weather History for Sumburgh, United Kingdom

Change the Weather History Date:

Monday, January 7, 2013

  Actual Average Record
Temperature  
Mean Temperature 42 °F -  
Max Temperature 46 °F 42 °F 50 °F (2000)
Min Temperature 37 °F 38 °F 30 °F (2011)
Degree Days  
Heating Degree Days 24    
Moisture  
Dew Point 43 °F    
Average Humidity 93    
Maximum Humidity 100    
Minimum Humidity 87    
Precipitation  
Precipitation 0.00 in - - ()
Sea Level Pressure  
Sea Level Pressure 30.00 in    
Wind  
Wind Speed 10 mph ()    
Max Wind Speed 18 mph    
Max Gust Speed -    
Visibility 4.3 miles    
Events Fog , Rain    
Averages and records for this station are not official NWS values.
T = Trace of Precipitation, MM = Missing Value Source: Averaged Metar Reports

Daily Weather History Graph

Daily Weather History Graph

Search for Another Location

Airport:

Trip Planner

Search our weather history database for the weather conditions in past years. The results will help you decide how hot, cold, wet, or windy it might be!

Date:

Astronomy

Jan. 07, 2013 Rise Set
Actual Time 9:01 AM GMT 3:21 PM GMT
Civil Twilight 8:06 AM GMT 4:16 PM GMT
Nautical Twilight 7:11 AM GMT 5:11 PM GMT
Astronomical Twilight 6:21 AM GMT 6:02 PM GMT
Moon 3:43 AM GMT (1/7) 11:41 AM GMT (1/7)
Length of Visible Light 8h 09m
Length of Day
6h 19m
Waning Crescent, 25% of the Moon is Illuminated
Jan 7
Waning Crescent
Jan 11
New
Jan 18
First Quarter
Jan 27
Full
Feb 3
Last Quarter

Hourly Weather History & Observations

Time (GMT) Temp. Windchill Dew Point Humidity Pressure Visibility Wind Dir Wind Speed Gust Speed Precip Events Conditions
12:20 AM 46.4 °F 41.5 °F 44.6 °F 93% 30.04 in 1.9 mi South 10.4 mph - N/A Rain Light Rain
12:50 AM 46.4 °F 40.4 °F 46.4 °F 100% 30.04 in 1.5 mi SSW 13.8 mph - N/A Rain Light Rain
1:20 AM 46.4 °F 40.7 °F 46.4 °F 100% 30.01 in - SSW 12.7 mph - N/A Rain Light Rain
1:50 AM 46.4 °F 39.8 °F 46.4 °F 100% 30.01 in 2.5 mi SW 16.1 mph - N/A   Mostly Cloudy
2:20 AM 46.4 °F 39.8 °F 46.4 °F 100% 30.01 in 3.7 mi SW 16.1 mph - N/A   Partly Cloudy
2:50 AM 46.4 °F 40.1 °F 46.4 °F 100% 30.01 in 3.1 mi SW 15.0 mph - N/A   Partly Cloudy
3:20 AM 46.4 °F 40.4 °F 44.6 °F 93% 30.01 in 3.1 mi SSW 13.8 mph - N/A   Unknown
3:50 AM 46.4 °F 40.1 °F 44.6 °F 93% 30.01 in 3.7 mi SW 15.0 mph - N/A   Unknown
4:20 AM 46.4 °F 39.2 °F 44.6 °F 93% 30.01 in 5.0 mi SW 18.4 mph - N/A   Unknown
4:50 AM 46.4 °F 39.8 °F 44.6 °F 93% 30.01 in 5.0 mi SW 16.1 mph - N/A   Unknown
5:20 AM 46.4 °F 40.4 °F 44.6 °F 93% 30.01 in 3.7 mi SW 13.8 mph - N/A   Unknown
5:50 AM 46.4 °F 40.7 °F 44.6 °F 93% 30.01 in 3.7 mi SW 12.7 mph - N/A   Unknown
6:20 AM 46.4 °F 40.4 °F 44.6 °F 93% 30.01 in 4.3 mi SW 13.8 mph - N/A   Unknown
6:50 AM 46.4 °F 40.7 °F 44.6 °F 93% 30.01 in 4.3 mi SW 12.7 mph - N/A   Scattered Clouds
7:20 AM 46.4 °F 40.4 °F 44.6 °F 93% 30.01 in 4.3 mi SSW 13.8 mph - N/A   Partly Cloudy
7:50 AM 46.4 °F 40.7 °F 42.8 °F 87% 30.01 in 5.6 mi SW 12.7 mph - N/A   Partly Cloudy
8:20 AM 46.4 °F 40.7 °F 42.8 °F 87% 30.01 in 6.2 mi SW 12.7 mph - N/A   Partly Cloudy
8:50 AM 46.4 °F 41.1 °F 44.6 °F 93% 30.01 in 6.2 mi SSW 11.5 mph - N/A   Partly Cloudy
9:20 AM 46.4 °F 40.7 °F 44.6 °F 93% 30.01 in 6.2 mi SSW 12.7 mph - N/A   Partly Cloudy
9:50 AM 46.4 °F 40.4 °F 44.6 °F 93% 30.01 in 6.2 mi SSW 13.8 mph - N/A   Partly Cloudy
10:20 AM 46.4 °F 40.4 °F 44.6 °F 93% 30.01 in 6.2 mi SSW 13.8 mph - N/A   Partly Cloudy
10:50 AM 46.4 °F 40.4 °F 44.6 °F 93% 30.01 in 6.2 mi SW 13.8 mph - N/A   Partly Cloudy
11:20 AM 46.4 °F 40.1 °F 44.6 °F 93% 30.01 in 6.2 mi SSW 15.0 mph - N/A   Partly Cloudy
11:50 AM 46.4 °F 40.4 °F 44.6 °F 93% 29.98 in 6.2 mi SSW 13.8 mph - N/A   Partly Cloudy
12:20 PM 46.4 °F 40.4 °F 42.8 °F 87% 29.98 in 6.2 mi SW 13.8 mph - N/A   Partly Cloudy
12:50 PM 46.4 °F 40.4 °F 42.8 °F 87% 29.98 in 6.2 mi SW 13.8 mph - N/A   Partly Cloudy
1:20 PM 46.4 °F 40.7 °F 42.8 °F 87% 29.98 in 5.6 mi WSW 12.7 mph - N/A   Unknown
1:50 PM 46.4 °F 41.5 °F 42.8 °F 87% 29.98 in 5.6 mi SSW 10.4 mph - N/A   Unknown
2:20 PM 46.4 °F 41.5 °F 42.8 °F 87% 29.98 in 6.2 mi SW 10.4 mph - N/A   Partly Cloudy
2:50 PM 46.4 °F 41.9 °F 42.8 °F 87% 29.98 in 5.6 mi SW 9.2 mph - N/A   Partly Cloudy
3:20 PM 46.4 °F 42.4 °F 42.8 °F 87% 29.98 in 5.6 mi SW 8.1 mph - N/A   Partly Cloudy
3:50 PM 44.6 °F 40.7 °F 42.8 °F 93% 29.98 in 5.6 mi SW 6.9 mph - N/A   Unknown
4:20 PM 44.6 °F 40.7 °F 42.8 °F 93% 29.98 in 5.6 mi SW 6.9 mph - N/A   Unknown
4:50 PM 44.6 °F 41.4 °F 42.8 °F 93% 29.98 in 5.0 mi SW 5.8 mph - N/A   Scattered Clouds
5:20 PM 44.6 °F 42.2 °F 44.6 °F 100% 29.98 in 4.3 mi SSW 4.6 mph - N/A   Mostly Cloudy
5:50 PM 44.6 °F - 42.8 °F 93% 29.98 in 4.3 mi Calm Calm - N/A   Scattered Clouds
6:20 PM 42.8 °F - 41.0 °F 93% 29.98 in 4.3 mi Calm Calm - N/A   Scattered Clouds
6:50 PM 41.0 °F - 39.2 °F 93% 29.98 in 3.1 mi Calm Calm - N/A   Haze
7:20 PM 41.0 °F - 39.2 °F 93% 30.01 in 3.1 mi Calm Calm - N/A   Haze
7:50 PM 42.8 °F - 41.0 °F 93% 30.01 in 3.1 mi Calm Calm - N/A   Haze
8:20 PM 42.8 °F - 41.0 °F 93% 30.01 in 3.1 mi Calm Calm - N/A   Haze
8:50 PM 42.8 °F - 42.8 °F 100% 30.01 in - Calm Calm - N/A Fog Fog
9:20 PM 41.0 °F - 41.0 °F 100% 30.01 in - Calm Calm - N/A Fog Fog
9:50 PM 42.8 °F - 41.0 °F 93% 30.01 in 2.5 mi Calm Calm - N/A   Haze
10:20 PM 41.0 °F - 39.2 °F 93% 30.01 in 1.9 mi Calm Calm - N/A   Haze
10:50 PM 39.2 °F - 37.4 °F 93% 30.01 in 1.9 mi Calm Calm - N/A   Mist
11:20 PM 37.4 °F - 37.4 °F 100% 30.01 in 0.2 mi Calm Calm - N/A Fog Fog
11:50 PM 37.4 °F - 37.4 °F 100% 30.01 in 0.2 mi Calm Calm - N/A Fog Fog